EW4266 Weather Reports


Display with metric or nautical units.
time (UTC)temp
F
wind
direction
speed
MPH
gust
MPH
rain 1hr
in
rain 24hr
in
rain mn
in
humidity
%
barometer
mb
20260506124033 45 346 6.0 19.0 0.09 0.79 0.40 1 1008.8
20260506123954 45 302 5.0 19.0 0.09 0.79 0.40 1 1009.0
20260506123837 45 314 7.0 19.0 0.09 0.79 0.40 1 1009.0
20260506123756 45 325 8.0 19.0 0.09 0.79 0.40 1 1009.0
20260506123626 45 306 8.0 19.0 0.08 0.78 0.39 1 1008.6
20260506123524 45 338 8.0 19.0 0.08 0.78 0.39 1 1008.2
20260506123332 45 69 13.0 19.0 0.08 0.78 0.39 1 1007.7
20260506123246 45 23 14.0 19.0 0.07 0.77 0.38 1 1007.7
20260506123115 46 69 8.0 16.0 0.06 0.76 0.37 1 1009.1
20260506123036 46 28 6.0 13.0 0.06 0.76 0.37 1 1010.5
20260506122840 46 334 7.0 12.0 0.06 0.76 0.37 1 1010.2
20260506122740 46 272 7.0 12.0 0.05 0.75 0.36 1 1008.9
20260506122623 46 20 7.0 12.0 0.05 0.75 0.36 1 1008.4
20260506122545 46 42 7.0 12.0 0.05 0.75 0.36 1 1009.1
20260506122432 46 42 7.0 12.0 0.06 0.75 0.36 1 1009.7
20260506122354 46 300 6.0 12.0 0.05 0.74 0.35 1 1009.8
20260506122137 46 267 4.0 9.0 0.05 0.74 0.35 1 1009.1
20260506122039 46 288 4.0 9.0 0.05 0.74 0.35 1 1008.7
20260506121942 46 34 4.0 9.0 0.05 0.74 0.35 1 1008.6
20260506121851 46 35 4.0 9.0 0.05 0.74 0.35 1 1008.6
20260506121812 46 26 5.0 9.0 0.05 0.74 0.35 1 1008.9
20260506121715 46 14 5.0 9.0 0.05 0.74 0.35 1 1009.0
20260506121616 46 329 5.0 8.0 0.04 0.73 0.34 1 1009.2
20260506121514 46 342 5.0 8.0 0.04 0.73 0.34 1 1009.2
20260506120808 46 5 3.0 8.0 0.03 0.72 0.33 1 1009.1
20260506120734 46 27 3.0 8.0 0.03 0.72 0.33 1 1009.2
20260506120604 47 40 3.0 8.0 0.03 0.72 0.33 1 1009.4
20260506120519 47 337 2.0 8.0 0.03 0.72 0.33 1 1009.6
20260506120330 47 304 5.0 8.0 0.03 0.72 0.33 1 1009.5
20260506120244 47 300 4.0 8.0 0.02 0.71 0.32 1 1009.5
20260506120114 47 340 3.0 6.0 0.02 0.71 0.32 1 1009.4
20260506120036 47 16 2.0 6.0 0.02 0.71 0.32 1 1009.3
20260506115838 47 10 2.0 6.0 0.02 0.71 0.32 1 1009.6
20260506115738 47 320 3.0 6.0 0.02 0.71 0.32 1 1009.6
20260506115643 47 303 4.0 6.0 0.01 0.70 0.31 1 1009.6
20260506115549 47 315 4.0 6.0 0.01 0.70 0.31 1 1009.5
20260506115511 47 329 4.0 6.0 0.01 0.70 0.31 1 1009.4
20260506115416 47 327 3.0 6.0 0.01 0.70 0.31 1 1009.4
20260506115338 47 355 3.0 6.0 0.01 0.70 0.31 1 1009.4
20260506115207 47 338 2.0 6.0 0.01 0.70 0.31 1 1009.4
20260506115122 47 5 3.0 8.0 0.01 0.70 0.31 1 1009.4
20260506114933 47 340 4.0 9.0 0.01 0.70 0.31 1 1009.4
20260506114848 47 338 4.0 9.0 0.01 0.70 0.31 1 1009.4
20260506114717 47 336 3.0 9.0 0.01 0.70 0.31 1 1009.3
20260506114639 47 360 4.0 9.0 0.01 0.70 0.31 1 1009.4
20260506114426 47 355 5.0 9.0 0.02 0.70 0.31 1 1009.5
20260506114349 47 323 5.0 9.0 0.02 0.70 0.31 1 1009.5
20260506114253 47 348 6.0 9.0 0.02 0.70 0.31 1 1009.5
20260506114215 47 348 5.0 9.0 0.02 0.70 0.31 1 1009.5
20260506114116 47 360 4.0 9.0 0.02 0.70 0.31 1 1009.5
20260506114020 47 337 4.0 8.0 0.02 0.70 0.31 1 1009.5
20260506113942 47 337 4.0 8.0 0.02 0.70 0.31 1 1009.4
20260506113729 47 327 4.0 8.0 0.02 0.70 0.31 1 1009.4
20260506113652 47 327 4.0 8.0 0.02 0.70 0.31 1 1009.5
20260506113532 47 340 4.0 8.0 0.02 0.70 0.31 1 1009.4
20260506113452 47 344 4.0 8.0 0.02 0.70 0.31 1 1009.3
20260506113354 47 343 4.0 8.0 0.02 0.70 0.31 1 1009.3
20260506113318 47 351 3.0 8.0 0.02 0.70 0.31 1 1009.2
20260506113243 47 355 3.0 8.0 0.02 0.70 0.31 1 1009.2
20260506113114 47 340 4.0 8.0 0.02 0.70 0.31 1 1009.2
20260506113029 47 340 4.0 8.0 0.02 0.70 0.31 1 1009.4
20260506112838 47 340 4.0 6.0 0.02 0.70 0.31 1 1009.5
20260506112753 47 328 4.0 6.0 0.02 0.70 0.31 1 1009.5
20260506112600 47 349 3.0 6.0 0.02 0.70 0.31 1 1009.4
20260506112503 47 9 3.0 6.0 0.01 0.69 0.30 1 1009.4
20260506112424 47 360 3.0 5.0 0.01 0.69 0.30 1 1009.4
20260506112224 47 355 3.0 5.0 0.01 0.69 0.30 1 1009.5
20260506112147 47 348 2.0 5.0 0.01 0.69 0.30 1 1009.5
20260506112052 47 338 2.0 5.0 0.01 0.69 0.30 1 1009.6
20260506111957 47 338 2.0 5.0 0.01 0.69 0.30 1 1009.6
20260506111735 47 305 3.0 8.0 0.01 0.69 0.30 1 1009.4
20260506111627 47 351 3.0 8.0 0.01 0.69 0.30 1 1009.3
20260506111456 47 338 2.0 8.0 0.01 0.69 0.30 1 1009.3
20260506111400 47 304 2.0 8.0 0.01 0.69 0.30 1 1009.3
20260506111223 47 307 4.0 8.0 0.01 0.69 0.30 1 1009.2
20260506111146 47 346 4.0 8.0 0.01 0.69 0.30 1 1009.2
20260506111039 47 328 4.0 8.0 0.01 0.69 0.30 1 1009.1
20260506111002 47 322 4.0 8.0 0.01 0.69 0.30 1 1009.1
20260506110906 47 312 2.0 6.0 0.01 0.69 0.30 1 1009.2
20260506110832 47 301 2.0 4.0 0.01 0.69 0.30 1 1009.1
20260506110636 47 317 3.0 4.0 0.01 0.69 0.30 1 1009.1
20260506110539 47 320 2.0 4.0 0.01 0.69 0.30 1 1009.1
20260506110440 47 338 1.0 5.0 0.01 0.69 0.30 1 1009.0
20260506110403 47 355 1.0 5.0 0.01 0.69 0.30 1 1009.0
20260506110325 47 22 2.0 5.0 0.01 0.69 0.30 1 1008.8
20260506110128 47 24 2.0 5.0 0.01 0.69 0.30 1 1008.7
20260506110052 47 26 2.0 5.0 0.01 0.69 0.30 1 1008.7
20260506105955 47 350 3.0 5.0 0.01 0.69 0.30 1 1008.7
20260506105840 48 5 3.0 5.0 0.01 0.69 0.30 1 1008.7
20260506105723 48 5 3.0 5.0 0.01 0.69 0.30 1 1008.7
20260506105655 48 31 3.0 6.0 0.01 0.69 0.30 1 1008.7
20260506105618 48 350 3.0 6.0 0.01 0.69 0.30 1 1008.6
20260506105439 48 13 3.0 6.0 0.01 0.69 0.30 1 1008.7
20260506105342 48 339 2.0 6.0 0.01 0.69 0.30 1 1008.7
20260506105223 48 17 3.0 6.0 0.01 0.69 0.30 1 1008.8
20260506105146 48 350 3.0 6.0 0.01 0.69 0.30 1 1008.8
20260506105100 48 329 3.0 6.0 0.01 0.69 0.30 1 1008.7
20260506104910 48 340 3.0 6.0 0.01 0.69 0.30 1 1008.7
20260506104836 48 355 3.0 6.0 0.01 0.69 0.30 1 1008.7
20260506104639 48 15 3.0 9.0 0.00 0.68 0.29 1 1008.7
20260506104543 48 340 2.0 9.0 0.00 0.68 0.29 1 1008.7
20260506104443 48 360 4.0 9.0 0.00 0.68 0.29 1 1008.8
20260506104345 48 355 4.0 9.0 0.00 0.68 0.29 1 1008.8
20260506104307 48 319 4.0 9.0 0.01 0.68 0.29 1 1008.9
20260506104211 48 339 4.0 9.0 0.01 0.68 0.29 1 1008.8
20260506104134 48 340 4.0 9.0 0.01 0.68 0.29 1 1008.8
20260506103936 48 324 6.0 9.0 0.02 0.68 0.29 1 1008.8
20260506103843 48 317 5.0 9.0 0.02 0.68 0.29 1 1008.8
20260506103724 48 329 6.0 10.0 0.04 0.68 0.29 1 1008.9
20260506103648 48 325 6.0 10.0 0.04 0.68 0.29 1 1008.9
20260506103523 48 309 3.0 10.0 0.04 0.68 0.29 1 1008.9
20260506103427 48 327 3.0 10.0 0.04 0.68 0.29 1 1008.9
20260506103328 48 335 4.0 10.0 0.04 0.68 0.29 1 1008.9
20260506103251 48 324 4.0 10.0 0.04 0.68 0.29 1 1008.9
20260506103153 48 326 4.0 10.0 0.04 0.68 0.29 1 1008.8
20260506103116 48 5 3.0 10.0 0.04 0.68 0.29 1 1008.8
20260506102924 48 5 6.0 10.0 0.04 0.68 0.29 1 1008.8
20260506102827 48 338 5.0 10.0 0.04 0.68 0.29 1 1008.8
20260506102730 48 329 4.0 8.0 0.04 0.68 0.29 1 1008.8
20260506102654 48 325 5.0 8.0 0.04 0.68 0.29 1 1008.8
20260506102616 48 323 5.0 8.0 0.04 0.68 0.29 1 1008.8
20260506102531 48 333 5.0 6.0 0.04 0.68 0.29 1 1008.8
20260506102430 48 329 5.0 6.0 0.04 0.68 0.29 1 1008.8
20260506102229 49 332 4.0 8.0 0.04 0.68 0.29 1 1008.6
20260506102122 49 339 4.0 8.0 0.04 0.68 0.29 1 1008.5
20260506102050 49 340 4.0 8.0 0.04 0.68 0.29 1 1008.5
20260506101933 49 329 4.0 8.0 0.04 0.68 0.29 1 1008.5
20260506101855 49 355 4.0 8.0 0.04 0.68 0.29 1 1008.4
20260506101736 49 338 4.0 8.0 0.04 0.68 0.29 1 1008.5
20260506101658 49 355 5.0 8.0 0.04 0.68 0.29 1 1008.5
20260506101621 49 342 5.0 8.0 0.04 0.68 0.29 1 1008.6
20260506101434 49 320 5.0 9.0 0.04 0.68 0.29 1 1008.8
20260506101243 49 327 5.0 9.0 0.04 0.68 0.29 1 1008.7
20260506101146 49 336 5.0 9.0 0.04 0.68 0.29 1 1008.6
20260506101109 49 333 5.0 9.0 0.04 0.68 0.29 1 1008.6
20260506101030 49 329 4.0 9.0 0.04 0.68 0.29 1 1008.6
20260506100915 49 334 3.0 10.0 0.05 0.68 0.29 1 1008.5
20260506100830 49 333 3.0 10.0 0.05 0.68 0.29 1 1008.5
20260506100641 49 350 4.0 10.0 0.05 0.68 0.29 1 1008.4
20260506100545 49 344 2.0 10.0 0.05 0.68 0.29 1 1008.3
20260506100353 49 12 4.0 10.0 0.05 0.68 0.29 1 1008.1
20260506100254 49 27 5.0 10.0 0.05 0.68 0.29 1 1008.1
20260506100156 49 25 5.0 10.0 0.05 0.68 0.29 1 1008.3
20260506100057 49 360 4.0 10.0 0.05 0.68 0.29 1 1008.3
20260506100019 49 22 3.0 10.0 0.05 0.68 0.29 1 1008.5
20260506095850 49 355 3.0 8.0 0.05 0.68 0.29 1 1009.0
20260506095723 49 332 3.0 8.0 0.05 0.68 0.29 1 1008.9
20260506095650 49 344 3.0 8.0 0.05 0.68 0.29 1 1008.9
20260506095533 49 355 2.0 8.0 0.05 0.68 0.29 1 1008.7
20260506095455 49 5 2.0 8.0 0.05 0.68 0.29 1 1008.7
20260506095408 49 5 3.0 8.0 0.05 0.68 0.29 1 1008.8
20260506095248 49 350 4.0 8.0 0.05 0.68 0.29 1 1008.9
20260506095149 49 336 4.0 6.0 0.05 0.68 0.29 1 1008.9
20260506095020 49 343 4.0 6.0 0.05 0.68 0.29 1 1008.9
20260506094935 49 333 4.0 6.0 0.05 0.68 0.29 1 1008.7
20260506094805 49 17 4.0 6.0 0.05 0.68 0.29 1 1008.6
20260506094727 50 24 4.0 6.0 0.05 0.68 0.29 1 1008.6
20260506094529 50 29 3.0 6.0 0.05 0.68 0.29 1 1008.8
20260506094457 50 11 3.0 6.0 0.05 0.68 0.29 1 1008.8
20260506094340 50 40 2.0 4.0 0.04 0.67 0.28 1 1008.8
20260506094303 50 77 2.0 4.0 0.04 0.67 0.28 1 1008.8
20260506094157 50 76 3.0 6.0 0.04 0.67 0.28 1 1008.8
20260506094118 50 46 3.0 6.0 0.03 0.66 0.27 1 1008.9
20260506094019 50 54 2.0 8.0 0.03 0.66 0.27 1 1009.1
20260506093824 50 36 2.0 8.0 0.02 0.65 0.26 1 1009.5
20260506093724 50 313 2.0 8.0 0.01 0.64 0.25 1 1009.8
20260506093627 50 246 1.0 8.0 0.01 0.64 0.25 1 1009.8
20260506093550 50 269 1.0 8.0 0.01 0.64 0.25 1 1009.8
20260506093516 50 269 3.0 9.0 0.01 0.64 0.25 1 1009.7
20260506093359 50 269 4.0 9.0 0.01 0.64 0.25 1 1009.6
20260506093321 50 270 5.0 9.0 0.01 0.64 0.25 1 1009.2
20260506093124 50 315 4.0 9.0 0.01 0.64 0.25 1 1008.9
20260506093026 50 344 5.0 9.0 0.01 0.64 0.25 1 1008.8
20260506092940 50 336 4.0 9.0 0.01 0.64 0.25 1 1008.7
20260506092902 50 329 4.0 9.0 0.01 0.64 0.25 1 1008.7
20260506092824 50 313 3.0 9.0 0.01 0.64 0.25 1 1008.6
20260506092636 50 355 4.0 9.0 0.01 0.64 0.25 1 1008.3
20260506092543 50 13 2.0 8.0 0.01 0.64 0.25 1 1008.3
20260506092447 50 42 3.0 8.0 0.01 0.64 0.25 1 1008.5
20260506092328 50 42 3.0 8.0 0.01 0.64 0.25 1 1008.7
20260506092233 50 29 3.0 8.0 0.01 0.64 0.25 1 1008.8
20260506092155 50 22 2.0 8.0 0.01 0.64 0.25 1 1008.8
20260506092026 50 15 3.0 8.0 0.01 0.64 0.25 1 1009.0
20260506091920 50 9 4.0 8.0 0.02 0.64 0.25 1 1009.0
20260506091750 50 319 4.0 8.0 0.02 0.64 0.25 1 1009.0
20260506091651 50 331 4.0 8.0 0.02 0.64 0.25 1 1009.0
20260506091521 50 316 3.0 6.0 0.03 0.64 0.25 1 1008.9
20260506091416 50 327 2.0 6.0 0.03 0.64 0.25 1 1008.8
20260506091230 50 104 2.0 6.0 0.03 0.64 0.25 1 1008.4
20260506091125 50 88 4.0 6.0 0.03 0.64 0.25 1 1008.3
20260506091020 51 73 4.0 7.0 0.02 0.63 0.24 1 1008.6
20260506090953 51 95 3.0 6.0 0.02 0.63 0.24 1 1008.6
20260506090915 51 70 2.0 6.0 0.02 0.63 0.24 1 1009.1
20260506090738 51 306 2.0 6.0 0.02 0.63 0.24 1 1009.6
20260506090641 51 306 4.0 6.0 0.02 0.63 0.24 1 1009.6
20260506090524 51 321 4.0 6.0 0.02 0.63 0.24 1 1009.2
20260506090445 51 336 3.0 5.0 0.02 0.63 0.24 1 1009.0
20260506090231 51 5 3.0 6.0 0.02 0.63 0.24 1 1008.9
20260506090133 51 337 4.0 6.0 0.02 0.63 0.24 1 1009.0
20260506090036 51 338 4.0 6.0 0.02 0.63 0.24 1 1009.0
20260506085958 51 321 3.0 6.0 0.02 0.63 0.24 1 1009.0
20260506085920 51 329 3.0 6.0 0.02 0.63 0.24 1 1009.0
20260506085723 51 41 2.0 6.0 0.02 0.63 0.24 1 1008.7
20260506085647 51 22 2.0 6.0 0.02 0.63 0.24 1 1008.7
20260506085532 51 46 3.0 6.0 0.02 0.63 0.24 1 1008.6
20260506085452 51 30 2.0 5.0 0.02 0.63 0.24 1 1008.5
20260506085358 51 46 2.0 5.0 0.02 0.63 0.24 1 1008.5
20260506085240 51 29 2.0 5.0 0.02 0.63 0.24 1 1008.6
20260506085203 51 28 3.0 5.0 0.02 0.63 0.24 1 1008.6
20260506085118 51 28 3.0 5.0 0.02 0.63 0.24 1 1008.7
20260506084927 51 305 2.0 6.0 0.03 0.63 0.24 1 1008.6
20260506084842 51 327 3.0 6.0 0.03 0.63 0.24 1 1008.6
20260506084742 51 57 3.0 6.0 0.04 0.63 0.24 1 1008.5
20260506084624 51 62 3.0 6.0 0.06 0.63 0.24 1 1008.6
20260506084546 51 58 3.0 6.0 0.06 0.63 0.24 1 1008.6
20260506084434 51 33 4.0 6.0 0.09 0.63 0.24 1 1009.3
20260506084358 51 327 4.0 6.0 0.09 0.63 0.24 1 1009.3
20260506084314 51 327 5.0 6.0 0.09 0.63 0.24 1 1009.4
20260506084124 51 313 4.0 6.0 0.09 0.63 0.24 1 1009.2
20260506084050 51 300 4.0 7.0 0.09 0.63 0.24 1 1009.2
20260506083921 51 325 3.0 5.0 0.09 0.63 0.24 1 1008.8
20260506083842 51 355 2.0 5.0 0.09 0.63 0.24 1 1008.7
20260506083652 51 360 3.0 5.0 0.09 0.63 0.24 1 1008.7
20260506083527 51 355 3.0 5.0 0.09 0.63 0.24 1 1008.7
20260506083425 51 27 3.0 5.0 0.10 0.63 0.24 1 1008.8
20260506083347 51 355 4.0 5.0 0.10 0.63 0.24 1 1008.8
20260506083310 51 341 3.0 5.0 0.10 0.63 0.24 1 1008.8
20260506083200 51 355 2.0 4.0 0.10 0.63 0.24 1 1008.8
20260506083042 51 12 2.0 4.0 0.10 0.63 0.24 1 1008.8
20260506082924 51 18 2.0 4.0 0.10 0.63 0.24 1 1008.9
20260506082848 51 22 2.0 4.0 0.10 0.63 0.24 1 1008.9
20260506082811 51 360 2.0 4.0 0.10 0.63 0.24 1 1008.8
20260506082713 51 24 2.0 4.0 0.10 0.63 0.24 1 1008.9
20260506082635 51 24 1.0 6.0 0.10 0.63 0.24 1 1009.0
20260506082506 51 11 1.0 6.0 0.10 0.63 0.24 1 1009.0
20260506082426 51 11 1.0 6.0 0.10 0.63 0.24 1 1009.0
20260506082235 51 59 1.0 6.0 0.10 0.63 0.24 1 1008.8
20260506082150 51 59 2.0 6.0 0.10 0.63 0.24 1 1008.6
20260506081939 51 59 3.0 6.0 0.09 0.62 0.23 1 1008.7
20260506081854 51 40 3.0 6.0 0.09 0.62 0.23 1 1008.7
20260506081817 51 28 3.0 6.0 0.09 0.62 0.23 1 1008.9
20260506081647 52 350 3.0 6.0 0.08 0.61 0.22 1 1009.5
20260506081548 52 323 3.0 6.0 0.08 0.61 0.22 1 1009.7
20260506081329 52 300 3.0 6.0 0.08 0.61 0.22 1 1009.5
20260506081252 52 292 4.0 6.0 0.08 0.61 0.22 1 1009.5
20260506081200 52 329 3.0 5.0 0.08 0.61 0.22 1 1008.8
20260506081041 52 342 2.0 5.0 0.08 0.61 0.22 1 1008.8
20260506080925 52 5 2.0 5.0 0.08 0.61 0.22 1 1008.8
20260506080847 52 5 2.0 5.0 0.08 0.61 0.22 1 1008.8
20260506080628 52 350 3.0 5.0 0.08 0.61 0.22 1 1008.8
20260506080551 52 16 3.0 5.0 0.08 0.61 0.22 1 1008.8
20260506080435 52 340 3.0 5.0 0.08 0.61 0.22 1 1008.8
20260506080336 52 351 3.0 5.0 0.08 0.61 0.22 1 1008.9
20260506080221 52 355 4.0 5.0 0.08 0.61 0.22 1 1008.9
20260506080144 52 348 3.0 5.0 0.08 0.61 0.22 1 1008.9
20260506080106 52 355 3.0 5.0 0.08 0.61 0.22 1 1009.0
20260506073515 53 343 5.0 6.0 0.01 0.53 0.14 1 1008.3
20260506073337 53 344 4.0 6.0 0.01 0.53 0.14 1 1008.2
20260506073243 53 355 4.0 5.0 0.01 0.53 0.14 1 1008.2
20260506073126 53 355 4.0 5.0 0.01 0.53 0.14 1 1008.4
20260506073048 53 341 4.0 5.0 0.01 0.53 0.14 1 1008.5
20260506072831 53 346 3.0 5.0 0.01 0.53 0.14 1 1008.4
20260506072734 53 343 4.0 5.0 0.01 0.53 0.14 1 1008.4
20260506072625 53 343 3.0 5.0 0.01 0.53 0.14 1 1008.3
20260506072548 53 338 3.0 5.0 0.01 0.53 0.14 1 1008.3
20260506072418 53 355 4.0 5.0 0.01 0.53 0.14 1 1008.5
20260506072334 53 350 4.0 5.0 0.01 0.53 0.14 1 1008.6
20260506072204 53 338 3.0 5.0 0.01 0.53 0.14 1 1008.7
20260506072125 53 342 3.0 5.0 0.01 0.53 0.14 1 1008.7
20260506071928 53 346 3.0 5.0 0.01 0.53 0.14 1 1008.7
20260506071852 53 338 4.0 5.0 0.01 0.53 0.14 1 1008.7
20260506071735 53 324 4.0 5.0 0.01 0.53 0.14 1 1008.6
20260506071656 53 342 3.0 4.0 0.01 0.53 0.14 1 1008.5
20260506071559 53 341 3.0 4.0 0.01 0.53 0.14 1 1008.5
20260506071500 53 329 3.0 4.0 0.01 0.53 0.14 1 1008.3
20260506071342 53 329 3.0 4.0 0.01 0.53 0.14 1 1008.3
20260506071245 53 327 3.0 4.0 0.01 0.53 0.14 1 1008.3
20260506071150 54 329 3.0 4.0 0.01 0.53 0.14 1 1008.3
20260506071112 54 339 3.0 4.0 0.01 0.53 0.14 1 1008.3
20260506071019 54 325 2.0 4.0 0.01 0.53 0.14 1 1008.3
20260506070940 54 325 2.0 3.0 0.01 0.53 0.14 1 1008.3
20260506070810 54 360 0.0 2.0 0.01 0.53 0.14 1 1008.3
20260506070623 54 40 0.0 3.0 0.01 0.53 0.14 1 1008.3
20260506070528 54 40 0.0 4.0 0.01 0.53 0.14 1 1008.3
20260506070428 54 40 0.0 4.0 0.01 0.53 0.14 1 1008.3
20260506070239 54 40 1.0 4.0 0.01 0.53 0.14 1 1008.5
20260506070138 54 40 0.0 4.0 0.01 0.53 0.14 1 1008.5
20260506062427 54 355 2.0 4.0 0.01 0.52 0.13 1 1008.4
20260506062342 54 335 2.0 4.0 0.01 0.52 0.13 1 1008.4
20260506062244 54 347 2.0 4.0 0.01 0.52 0.13 1 1008.4
20260506062149 54 348 2.0 4.0 0.01 0.52 0.13 1 1008.2
20260506062030 54 16 1.0 4.0 0.01 0.52 0.13 1 1008.2
20260506061933 54 11 2.0 4.0 0.01 0.52 0.13 1 1008.3
20260506061855 54 10 2.0 4.0 0.01 0.52 0.13 1 1008.3
20260506061822 54 11 2.0 4.0 0.01 0.52 0.13 1 1008.3
20260506061626 54 5 2.0 4.0 0.01 0.52 0.13 1 1008.2
20260506061529 54 13 2.0 4.0 0.01 0.52 0.13 1 1008.2
20260506061432 54 5 3.0 4.0 0.01 0.52 0.13 1 1008.4
20260506061356 54 5 3.0 4.0 0.01 0.52 0.13 1 1008.4
20260506061319 54 360 3.0 4.0 0.01 0.52 0.13 1 1008.4
20260506061223 54 340 2.0 4.0 0.01 0.52 0.13 1 1008.4
20260506061123 54 340 2.0 4.0 0.01 0.52 0.13 1 1008.4
20260506060935 54 13 0.0 1.0 0.01 0.52 0.13 1 1008.5
20260506060831 54 13 0.0 1.0 0.02 0.52 0.13 1 1008.5
20260506060755 54 13 0.0 1.0 0.02 0.52 0.13 1 1008.5
20260506060639 54 13 0.0 2.0 0.02 0.52 0.13 1 1008.6
20260506060602 54 13 0.0 2.0 0.02 0.52 0.13 1 1008.6
20260506060516 54 13 0.0 2.0 0.02 0.52 0.13 1 1008.5
20260506060345 54 13 0.0 2.0 0.03 0.52 0.13 1 1008.5
20260506060247 54 13 0.0 2.0 0.03 0.52 0.13 1 1008.5
20260506060151 54 13 0.0 2.0 0.04 0.52 0.13 1 1008.4
20260506051400 55 141 0.0 1.0 0.08 0.51 0.12 1 1008.7
20260506051158 55 141 0.0 0.0 0.08 0.51 0.12 1 1008.8
20260506051120 55 141 0.0 0.0 0.08 0.51 0.12 1 1008.7
20260506050922 55 141 0.0 2.0 0.08 0.51 0.12 1 1008.7
20260506050845 55 141 0.0 3.0 0.08 0.51 0.12 1 1008.7
20260506050729 55 141 0.0 4.0 0.07 0.50 0.11 1 1008.8
20260506050650 55 141 0.0 4.0 0.07 0.50 0.11 1 1008.8
20260506050521 55 141 0.0 5.0 0.08 0.50 0.11 1 1008.9
20260506050437 55 141 0.0 5.0 0.08 0.50 0.11 1 1008.9
20260506050309 55 141 0.0 5.0 0.08 0.49 0.10 1 1008.9
20260506050234 55 141 0.0 5.0 0.08 0.48 0.09 1 1009.0
20260506045102 55 128 1.0 3.0 0.06 0.45 0.06 1 1008.9
20260506045025 55 127 1.0 3.0 0.06 0.45 0.06 1 1008.7
20260506044826 55 127 1.0 3.0 0.06 0.45 0.06 1 1008.7
20260506044749 55 127 2.0 3.0 0.06 0.45 0.06 1 1008.7
20260506044654 55 81 2.0 3.0 0.06 0.45 0.06 1 1008.8
20260506044616 55 81 2.0 3.0 0.06 0.45 0.06 1 1008.8
20260506044448 55 81 1.0 3.0 0.06 0.45 0.06 1 1008.5
20260506044349 55 81 0.0 3.0 0.07 0.45 0.06 1 1008.4
20260506044231 55 81 0.0 3.0 0.07 0.45 0.06 1 1008.3
20260506044154 55 81 0.0 3.0 0.07 0.45 0.06 1 1008.3
20260506044120 55 81 0.0 3.0 0.07 0.45 0.06 1 1008.2
20260506044004 55 81 0.0 3.0 0.07 0.45 0.06 1 1008.2
20260506043925 55 81 0.0 3.0 0.07 0.45 0.06 1 1008.3
20260506043736 55 81 1.0 3.0 0.08 0.45 0.06 1 1008.2
20260506043651 55 84 2.0 3.0 0.08 0.45 0.06 1 1008.2
20260506043500 55 5 1.0 3.0 0.08 0.44 0.05 1 1008.0
20260506043422 55 5 1.0 3.0 0.08 0.44 0.05 1 1008.2
20260506043224 55 5 0.0 3.0 0.09 0.44 0.05 1 1008.4
20260506043146 55 5 0.0 3.0 0.09 0.44 0.05 1 1008.3
20260506043038 55 5 1.0 3.0 0.10 0.44 0.05 1 1008.2
20260506042945 55 5 2.0 3.0 0.10 0.44 0.05 1 1008.2
20260506042830 55 5 2.0 3.0 0.10 0.44 0.05 1 1008.0
20260506042752 55 16 1.0 3.0 0.10 0.44 0.05 1 1008.0
20260506042623 55 42 0.0 3.0 0.10 0.44 0.05 1 1008.0
20260506042516 55 58 0.0 3.0 0.11 0.44 0.05 1 1007.9
20260506042326 55 58 1.0 3.0 0.12 0.44 0.05 1 1007.8
20260506042242 55 58 1.0 3.0 0.12 0.44 0.05 1 1007.8
20260506042145 55 74 1.0 4.0 0.11 0.43 0.04 1 1007.8
20260506042030 55 331 0.0 5.0 0.11 0.43 0.04 1 1008.5
20260506041956 55 331 1.0 5.0 0.11 0.43 0.04 1 1008.7
20260506041738 55 331 2.0 5.0 0.11 0.43 0.04 1 1008.6
20260506041700 55 331 2.0 5.0 0.11 0.43 0.04 1 1008.6
20260506041604 55 331 2.0 5.0 0.11 0.43 0.04 1 1008.6
20260506041526 55 331 2.0 5.0 0.11 0.43 0.04 1 1008.5
20260506041329 55 326 2.0 5.0 0.11 0.43 0.04 1 1008.2
20260506041231 55 34 2.0 5.0 0.11 0.43 0.04 1 1008.1
20260506041134 55 5 2.0 5.0 0.12 0.43 0.04 1 1008.0
20260506041058 55 5 3.0 5.0 0.12 0.43 0.04 1 1008.0
20260506041020 55 16 3.0 5.0 0.12 0.43 0.04 1 1007.9
20260506040828 55 54 2.0 5.0 0.12 0.43 0.04 1 1007.9
20260506040729 55 72 1.0 5.0 0.12 0.43 0.04 1 1007.9
20260506040623 55 84 2.0 5.0 0.12 0.43 0.04 1 1007.9
20260506040546 55 73 1.0 5.0 0.11 0.42 0.03 1 1008.0
20260506040326 55 75 2.0 5.0 0.11 0.41 0.02 1 1008.0
20260506040249 55 75 3.0 5.0 0.10 0.40 0.01 1 1008.0
20260506040132 56 70 3.0 5.0 0.12 0.40 0.01 1 1008.1
20260506040056 56 67 2.0 3.0 0.11 0.39 0.00 1 1008.1
20260506040021 56 67 1.0 3.0 0.11 0.39 0.00 1 1008.4
20260506035923 56 65 0.0 2.0 0.12 0.39 0.39 1 1008.8
20260506035825 56 65 0.0 2.0 0.12 0.39 0.39 1 1008.9
20260506035630 56 65 0.0 2.0 0.12 0.39 0.39 1 1008.8
20260506035531 56 65 0.0 2.0 0.12 0.39 0.39 1 1008.8
20260506035434 56 65 0.0 3.0 0.12 0.39 0.39 1 1008.7
20260506035356 56 65 0.0 3.0 0.12 0.39 0.39 1 1008.7
20260506035319 56 65 1.0 6.0 0.12 0.39 0.39 1 1008.6
20260506035122 56 65 1.0 6.0 0.12 0.39 0.39 1 1008.5
20260506035045 56 65 0.0 6.0 0.12 0.39 0.39 1 1008.5
20260506034930 56 65 0.0 6.0 0.13 0.39 0.39 1 1008.5
20260506034855 56 65 0.0 6.0 0.13 0.39 0.39 1 1008.5
20260506034810 56 65 1.0 6.0 0.13 0.39 0.39 1 1008.4
20260506034640 56 75 2.0 6.0 0.13 0.39 0.39 1 1008.4
20260506034541 56 85 2.0 6.0 0.13 0.39 0.39 1 1008.5
20260506034411 56 103 0.0 4.0 0.12 0.38 0.38 1 1008.5
20260506034327 56 60 0.0 4.0 0.12 0.38 0.38 1 1008.5
20260506034137 56 60 0.0 4.0 0.12 0.38 0.38 1 1008.5
20260506034053 56 60 0.0 4.0 0.12 0.38 0.38 1 1008.5
20260506033923 56 60 2.0 4.0 0.12 0.38 0.38 1 1008.4
20260506033845 56 76 3.0 4.0 0.11 0.37 0.37 1 1008.4
20260506033629 57 77 2.0 4.0 0.11 0.37 0.37 1 1008.4
20260506033552 57 82 1.0 4.0 0.10 0.36 0.36 1 1008.4
20260506033435 57 88 3.0 4.0 0.11 0.36 0.36 1 1008.4
20260506033357 57 81 2.0 4.0 0.11 0.36 0.36 1 1008.4
20260506033320 57 85 1.0 4.0 0.10 0.35 0.35 1 1008.4
20260506033123 57 46 0.0 3.0 0.10 0.34 0.34 1 1008.4
20260506033038 57 46 0.0 3.0 0.10 0.34 0.34 1 1008.3
20260506032908 57 46 0.0 3.0 0.10 0.34 0.34 1 1008.3
20260506032830 57 46 0.0 3.0 0.10 0.34 0.34 1 1008.2
20260506032636 57 46 0.0 3.0 0.10 0.34 0.34 1 1008.0
20260506032600 57 46 1.0 3.0 0.10 0.34 0.34 1 1008.0
20260506032423 57 52 1.0 3.0 0.09 0.33 0.33 1 1008.1
20260506032339 57 53 0.0 0.0 0.08 0.32 0.32 1 1008.0
20260506032209 58 78 0.0 0.0 0.08 0.32 0.32 1 1008.1
20260506032131 58 65 0.0 0.0 0.08 0.32 0.32 1 1008.1
20260506031936 58 347 0.0 0.0 0.08 0.32 0.32 1 1008.1
20260506031838 58 347 0.0 0.0 0.08 0.32 0.32 1 1008.1
20260506031724 58 360 0.0 0.0 0.08 0.32 0.32 1 1008.0
20260506031647 58 49 0.0 0.0 0.08 0.32 0.32 1 1008.0
20260506031526 58 86 0.0 0.0 0.08 0.32 0.32 1 1008.0
20260506031429 58 86 0.0 1.0 0.08 0.32 0.32 1 1008.1
20260506031351 58 86 0.0 2.0 0.08 0.32 0.32 1 1008.1
20260506031313 58 86 0.0 3.0 0.08 0.32 0.32 1 1008.1
20260506031136 59 86 0.0 4.0 0.07 0.31 0.31 1 1008.1
20260506031058 59 86 0.0 4.0 0.07 0.31 0.31 1 1008.1
20260506030923 59 86 0.0 4.0 0.07 0.31 0.31 1 1008.1
20260506030845 59 86 0.0 4.0 0.07 0.31 0.31 1 1008.1
20260506030807 59 86 0.0 4.0 0.07 0.31 0.31 1 1008.0
20260506030711 59 86 1.0 4.0 0.07 0.31 0.31 1 1008.0
20260506030634 59 86 1.0 4.0 0.07 0.31 0.31 1 1008.0
20260506030437 59 86 3.0 4.0 0.06 0.30 0.30 1 1007.9
20260506030340 59 86 2.0 4.0 0.06 0.30 0.30 1 1007.9
20260506030224 59 142 1.0 2.0 0.05 0.29 0.29 1 1008.0
20260506030146 59 142 1.0 2.0 0.04 0.28 0.28 1 1008.0
20260506025931 59 142 1.0 4.0 0.03 0.27 0.27 1 1008.1
20260506025855 59 142 1.0 4.0 0.03 0.27 0.27 1 1008.1
20260506025738 60 217 2.0 4.0 0.03 0.27 0.27 1 1008.2
20260506025700 60 260 2.0 4.0 0.03 0.27 0.27 1 1008.2
20260506025615 60 277 1.0 4.0 0.03 0.27 0.27 1 1008.2
20260506025425 60 313 0.0 4.0 0.03 0.27 0.27 1 1008.0
20260506025348 60 313 1.0 4.0 0.03 0.27 0.27 1 1007.9
20260506025229 60 313 2.0 4.0 0.03 0.27 0.27 1 1007.9
20260506025152 60 34 2.0 4.0 0.03 0.27 0.27 1 1007.9
20260506024916 60 267 2.0 4.0 0.02 0.26 0.26 1 1007.9
20260506024851 60 267 2.0 4.0 0.02 0.26 0.26 1 1007.9
20260506024745 60 298 0.0 3.0 0.02 0.26 0.26 1 1007.7
20260506024646 60 336 0.0 4.0 0.02 0.26 0.26 1 1007.7
20260506024517 60 336 0.0 5.0 0.02 0.26 0.26 1 1007.5
20260506024430 60 336 0.0 5.0 0.02 0.26 0.26 1 1007.5
20260506024241 60 336 0.0 6.0 0.02 0.26 0.26 1 1007.5
20260506024203 60 336 1.0 6.0 0.02 0.26 0.26 1 1007.4
20260506023943 61 328 2.0 6.0 0.02 0.26 0.26 1 1007.4
20260506023813 61 34 3.0 6.0 0.02 0.26 0.26 1 1007.4
20260506023734 61 355 4.0 6.0 0.02 0.26 0.26 1 1007.3
20260506023539 61 341 3.0 7.0 0.02 0.26 0.26 1 1007.4
20260506023503 61 355 2.0 7.0 0.01 0.25 0.25 1 1007.4
20260506023406 61 204 2.0 7.0 0.01 0.25 0.25 1 1007.3
20260506023328 61 186 2.0 7.0 0.01 0.25 0.25 1 1007.1
20260506023132 60 228 3.0 7.0 0.00 0.24 0.24 1 1007.2
20260506023033 60 280 3.0 7.0 0.00 0.24 0.24 1 1007.3
20260506022937 60 296 3.0 7.0 0.00 0.24 0.24 1 1007.2
20260506022838 60 304 3.0 7.0 0.00 0.24 0.24 1 1007.1
20260506022708 60 254 2.0 7.0 0.00 0.24 0.24 1 1007.0
20260506022630 60 244 1.0 7.0 0.00 0.24 0.24 1 1007.0
20260506022436 60 277 2.0 7.0 0.00 0.24 0.24 1 1006.9
20260506022400 60 244 2.0 7.0 0.00 0.24 0.24 1 1006.9
20260506022243 60 267 2.0 4.0 0.00 0.24 0.24 1 1006.9
20260506022146 60 275 2.0 3.0 0.00 0.24 0.24 1 1006.9
20260506022031 60 241 2.0 3.0 0.00 0.24 0.24 1 1006.9
20260506021953 60 240 1.0 3.0 0.00 0.24 0.24 1 1006.8
20260506021835 60 220 1.0 3.0 0.00 0.24 0.24 1 1006.8
20260506021758 60 220 0.0 3.0 0.00 0.24 0.24 1 1006.8
20260506021720 60 220 0.0 3.0 0.00 0.24 0.24 1 1006.8
20260506021525 61 220 1.0 3.0 0.00 0.24 0.24 1 1006.8
20260506021447 61 220 0.0 3.0 0.00 0.24 0.24 1 1006.8
20260506021330 61 220 0.0 3.0 0.00 0.24 0.24 1 1006.7
20260506021250 61 220 1.0 3.0 0.00 0.24 0.24 1 1006.7
20260506021122 61 220 1.0 3.0 0.00 0.24 0.24 1 1006.6
20260506021038 61 206 1.0 3.0 0.00 0.24 0.24 1 1006.6
20260506020908 61 223 1.0 3.0 0.00 0.24 0.24 1 1006.5
20260506020831 61 223 1.0 3.0 0.00 0.24 0.24 1 1006.5
20260506020635 61 181 0.0 1.0 0.00 0.24 0.24 1 1006.5
20260506020539 61 181 0.0 2.0 0.00 0.24 0.24 1 1006.4
20260506020442 62 181 0.0 3.0 0.00 0.24 0.24 1 1006.4
20260506020408 62 181 0.0 3.0 0.00 0.24 0.24 1 1006.4
20260506020330 62 181 0.0 3.0 0.00 0.24 0.24 1 1006.4
20260506020132 62 181 0.0 3.0 0.00 0.24 0.24 1 1006.4
20260506020056 62 181 0.0 3.0 0.00 0.24 0.24 1 1006.4
20260506015938 62 181 0.0 3.0 0.00 0.24 0.24 1 1006.5
20260506015901 62 181 0.0 3.0 0.00 0.24 0.24 1 1006.5
20260506015817 62 181 1.0 3.0 0.00 0.24 0.24 1 1006.5
20260506015646 62 207 2.0 3.0 0.00 0.24 0.24 1 1006.5
20260506015548 62 207 2.0 3.0 0.00 0.24 0.24 1 1006.5
20260506015510 62 202 2.0 3.0 0.00 0.24 0.24 1 1006.6
20260506015353 62 202 2.0 3.0 0.00 0.24 0.24 1 1006.6
20260506015320 62 200 2.0 3.0 0.00 0.24 0.24 1 1006.5
20260506015124 62 167 1.0 5.0 0.00 0.24 0.24 1 1006.5
20260506015027 62 178 1.0 5.0 0.00 0.24 0.24 1 1006.5
20260506014931 62 178 1.0 5.0 0.00 0.24 0.24 1 1006.5
20260506014853 62 178 2.0 5.0 0.00 0.24 0.24 1 1006.5
20260506014722 62 178 1.0 5.0 0.00 0.24 0.24 1 1006.5
20260506014615 62 137 1.0 5.0 0.00 0.24 0.24 1 1006.5
20260506014426 62 136 3.0 5.0 0.00 0.24 0.24 1 1006.6
20260506014348 62 151 3.0 5.0 0.00 0.24 0.24 1 1006.7
20260506014232 62 163 4.0 5.0 0.00 0.24 0.24 1 1006.7
20260506014156 62 189 3.0 5.0 0.00 0.24 0.24 1 1006.7
20260506014059 62 132 2.0 5.0 0.00 0.24 0.24 1 1006.7
20260506013923 62 181 2.0 5.0 0.00 0.24 0.24 1 1006.6
20260506013839 62 174 1.0 5.0 0.00 0.24 0.24 1 1006.7
20260506013708 62 144 1.0 5.0 0.00 0.24 0.24 1 1006.7
20260506013630 62 144 2.0 5.0 0.00 0.24 0.24 1 1006.6
20260506013434 62 134 3.0 5.0 0.00 0.24 0.24 1 1006.7
20260506013357 62 144 3.0 5.0 0.00 0.24 0.24 1 1006.7
20260506013240 62 163 3.0 6.0 0.00 0.24 0.24 1 1006.7
20260506013207 62 161 3.0 6.0 0.00 0.24 0.24 1 1006.7
20260506013130 62 154 3.0 6.0 0.00 0.24 0.24 1 1006.6
20260506012932 62 178 3.0 6.0 0.00 0.24 0.24 1 1006.5
20260506012855 61 161 3.0 6.0 0.00 0.24 0.24 1 1006.5
20260506012758 62 167 4.0 6.0 0.00 0.24 0.24 1 1006.6
20260506012720 61 157 4.0 6.0 0.00 0.24 0.24 1 1006.5
20260506012550 61 160 4.0 6.0 0.00 0.24 0.24 1 1006.5
20260506012444 61 154 4.0 6.0 0.00 0.24 0.24 1 1006.5
20260506012315 61 217 3.0 6.0 0.00 0.24 0.24 1 1006.4
20260506012236 61 163 2.0 6.0 0.00 0.24 0.24 1 1006.4
20260506012106 61 196 3.0 6.0 0.00 0.24 0.24 1 1006.4
20260506012022 61 236 4.0 6.0 0.00 0.24 0.24 1 1006.3
20260506011837 61 230 2.0 6.0 0.00 0.24 0.24 1 1006.2
20260506011750 61 232 2.0 4.0 0.00 0.24 0.24 1 1006.2
20260506011621 61 192 3.0 4.0 0.00 0.24 0.24 1 1006.0
20260506011542 61 234 2.0 4.0 0.00 0.24 0.24 1 1005.9
20260506011405 61 247 2.0 4.0 0.00 0.24 0.24 1 1005.8
20260506011327 61 247 2.0 4.0 0.00 0.24 0.24 1 1005.6
20260506011138 61 242 1.0 4.0 0.00 0.24 0.24 1 1005.5
20260506011031 61 215 2.0 4.0 0.00 0.24 0.24 1 1005.6
20260506010955 61 215 2.0 4.0 0.00 0.24 0.24 1 1005.6
20260506010858 61 227 1.0 4.0 0.00 0.24 0.24 1 1005.6
20260506010744 61 209 1.0 4.0 0.00 0.24 0.24 1 1005.6
20260506010648 61 194 2.0 4.0 0.00 0.24 0.24 1 1005.7
20260506010529 61 178 2.0 3.0 0.00 0.24 0.24 1 1005.6
20260506010433 61 163 2.0 3.0 0.00 0.24 0.24 1 1005.5
20260506010355 61 134 2.0 3.0 0.00 0.24 0.24 1 1005.6
20260506010201 61 187 2.0 3.0 0.00 0.24 0.24 1 1005.6
20260506010105 61 187 2.0 5.0 0.00 0.24 0.24 1 1005.6
20260506010019 61 187 2.0 5.0 0.00 0.24 0.24 1 1005.6
20260506005830 61 190 1.0 5.0 0.00 0.24 0.24 1 1005.7
20260506005730 61 222 1.0 5.0 0.00 0.24 0.24 1 1005.7
20260506005616 61 254 2.0 5.0 0.00 0.24 0.24 1 1005.7
20260506005551 62 254 2.0 5.0 0.00 0.24 0.24 1 1005.7
20260506005249 62 232 3.0 5.0 0.00 0.24 0.24 1 1005.6
20260506005132 62 208 2.0 5.0 0.00 0.24 0.24 1 1005.6
20260506005032 62 248 2.0 5.0 0.00 0.24 0.24 1 1005.6
20260506004957 62 210 2.0 5.0 0.00 0.24 0.24 1 1005.6
20260506004823 62 242 3.0 6.0 0.00 0.24 0.24 1 1005.6
20260506004739 62 269 3.0 7.0 0.00 0.24 0.24 1 1005.6
20260506004641 62 216 3.0 7.0 0.00 0.24 0.24 1 1005.6
20260506004543 62 193 3.0 7.0 0.00 0.24 0.24 1 1005.6
20260506004444 62 238 3.0 7.0 0.00 0.24 0.24 1 1005.6
20260506004313 62 213 2.0 7.0 0.00 0.24 0.24 1 1005.5
20260506004227 62 217 2.0 7.0 0.00 0.24 0.24 1 1005.5
20260506004056 62 193 3.0 7.0 0.00 0.24 0.24 1 1005.5
20260506003957 62 193 3.0 7.0 0.00 0.24 0.24 1 1005.5
20260506003820 62 189 3.0 6.0 0.00 0.24 0.24 1 1005.5
20260506003746 62 196 4.0 6.0 0.00 0.24 0.24 1 1005.5
20260506003617 62 213 3.0 6.0 0.00 0.24 0.24 1 1005.5
20260506003540 62 182 2.0 6.0 0.00 0.24 0.24 1 1005.4
20260506003403 62 181 2.0 6.0 0.00 0.24 0.24 1 1005.4
20260506003336 62 192 2.0 6.0 0.00 0.24 0.24 1 1005.4
20260506003205 62 201 3.0 6.0 0.00 0.24 0.24 1 1005.4
20260506003120 62 223 3.0 6.0 0.00 0.24 0.24 1 1005.4
20260506002950 62 137 4.0 6.0 0.00 0.24 0.24 1 1005.5
20260506002852 62 189 4.0 6.0 0.00 0.24 0.24 1 1005.5
20260506002807 62 190 3.0 8.0 0.00 0.24 0.24 1 1005.5
20260506002635 62 165 2.0 8.0 0.00 0.24 0.24 1 1005.5
20260506002537 62 177 2.0 8.0 0.00 0.24 0.24 1 1005.6
20260506002323 62 126 2.0 8.0 0.00 0.24 0.24 1 1005.5
20260506002247 62 171 2.0 8.0 0.00 0.24 0.24 1 1005.5
20260506002150 62 158 4.0 8.0 0.00 0.24 0.24 1 1005.5
20260506002029 62 191 5.0 8.0 0.00 0.24 0.24 1 1005.5
20260506001934 62 156 5.0 8.0 0.00 0.24 0.24 1 1005.5
20260506001855 62 159 3.0 6.0 0.00 0.24 0.24 1 1005.4
20260506001756 62 207 4.0 6.0 0.00 0.24 0.24 1 1005.4
20260506001638 62 198 4.0 7.0 0.00 0.24 0.24 1 1005.4
20260506001601 62 242 4.0 7.0 0.00 0.24 0.24 1 1005.4
20260506001516 62 199 3.0 6.0 0.00 0.24 0.24 1 1005.3
20260506001329 62 180 3.0 6.0 0.00 0.24 0.24 1 1005.4
20260506001255 62 177 3.0 7.0 0.00 0.24 0.24 1 1005.4
20260506001215 62 179 2.0 7.0 0.00 0.24 0.24 1 1005.4
20260506001137 62 200 2.0 7.0 0.00 0.24 0.24 1 1005.3
20260506001030 62 185 3.0 7.0 0.00 0.24 0.24 1 1005.3
20260506000840 62 165 3.0 7.0 0.00 0.24 0.24 1 1005.4
20260506000742 62 202 3.0 7.0 0.00 0.24 0.24 1 1005.3
20260506000646 62 195 4.0 7.0 0.00 0.24 0.24 1 1005.4
20260506000528 62 192 5.0 7.0 0.00 0.24 0.24 1 1005.4
20260506000430 62 198 5.0 7.0 0.00 0.24 0.24 1 1005.3
20260506000324 62 196 4.0 7.0 0.00 0.24 0.24 1 1005.3
20260506000227 62 235 3.0 7.0 0.00 0.24 0.24 1 1005.3
20260506000128 62 223 4.0 7.0 0.00 0.24 0.24 1 1005.2
20260506000029 62 225 4.0 7.0 0.00 0.24 0.24 1 1005.2
20260505235832 62 216 3.0 7.0 0.00 0.24 0.24 1 1005.0
20260505235733 62 194 4.0 7.0 0.00 0.24 0.24 1 1005.0
20260505235614 62 225 5.0 7.0 0.00 0.24 0.24 1 1005.0
20260505235536 62 215 4.0 8.0 0.00 0.24 0.24 1 1005.1
20260505235323 62 207 4.0 7.0 0.00 0.24 0.24 1 1005.0
20260505235223 62 225 4.0 7.0 0.00 0.24 0.24 1 1005.1
20260505235126 62 212 4.0 7.0 0.00 0.24 0.24 1 1005.2
20260505235049 62 189 4.0 7.0 0.00 0.24 0.24 1 1005.2
20260505235011 62 229 4.0 7.0 0.00 0.24 0.24 1 1005.2
20260505234835 62 181 4.0 7.0 0.00 0.24 0.24 1 1005.2
20260505234737 62 196 3.0 7.0 0.00 0.24 0.24 1 1005.1
20260505234629 62 197 3.0 7.0 0.00 0.24 0.24 1 1005.0
20260505234550 62 199 3.0 7.0 0.00 0.24 0.24 1 1005.0
20260505234515 62 216 4.0 7.0 0.00 0.24 0.24 1 1005.0
20260505234419 62 172 4.0 7.0 0.00 0.24 0.24 1 1005.0
20260505234340 62 133 4.0 7.0 0.00 0.24 0.24 1 1005.1
20260505234201 62 190 2.0 7.0 0.00 0.24 0.24 1 1005.2
20260505234013 62 185 2.0 7.0 0.00 0.24 0.24 1 1005.3
20260505233928 62 211 3.0 7.0 0.00 0.24 0.24 1 1005.3
20260505233850 62 217 3.0 7.0 0.00 0.24 0.24 1 1005.3
20260505233632 62 217 4.0 7.0 0.00 0.24 0.24 1 1005.3
20260505233533 62 189 4.0 7.0 0.00 0.24 0.24 1 1005.3
20260505233441 62 191 4.0 8.0 0.00 0.24 0.24 1 1005.2
20260505233404 62 171 4.0 8.0 0.00 0.24 0.24 1 1005.2
20260505233325 62 178 4.0 8.0 0.00 0.24 0.24 1 1005.2
20260505233156 62 209 4.0 8.0 0.00 0.24 0.24 1 1005.2
20260505233028 62 180 4.0 8.0 0.00 0.24 0.24 1 1005.1
20260505232952 62 177 4.0 8.0 0.00 0.24 0.24 1 1005.1
20260505232854 62 186 4.0 6.0 0.00 0.24 0.24 1 1005.0
20260505232736 62 183 3.0 6.0 0.00 0.24 0.24 1 1005.0
20260505232650 62 188 3.0 6.0 0.00 0.24 0.24 1 1005.0
20260505232611 62 167 3.0 6.0 0.00 0.24 0.24 1 1004.9
20260505232512 62 193 3.0 6.0 0.00 0.24 0.24 1 1004.9
20260505232421 62 189 3.0 6.0 0.00 0.24 0.24 1 1004.9
20260505232322 62 209 3.0 6.0 0.00 0.24 0.24 1 1005.0
20260505232134 62 160 3.0 6.0 0.00 0.24 0.24 1 1005.0
20260505232048 62 198 3.0 6.0 0.00 0.24 0.24 1 1005.0
20260505231918 62 183 3.0 6.0 0.00 0.24 0.24 1 1005.0
20260505231841 62 211 3.0 6.0 0.00 0.24 0.24 1 1005.0
20260505231642 62 232 1.0 5.0 0.00 0.24 0.24 1 1004.9
20260505231542 62 232 1.0 5.0 0.00 0.24 0.24 1 1004.9
20260505231448 62 232 1.0 5.0 0.00 0.24 0.24 1 1004.8
20260505231348 62 214 1.0 5.0 0.00 0.24 0.24 1 1004.8
20260505231219 62 209 1.0 5.0 0.00 0.24 0.24 1 1004.8
20260505231138 62 209 2.0 6.0 0.00 0.24 0.24 1 1004.8
20260505231008 62 171 3.0 6.0 0.00 0.24 0.24 1 1004.8
20260505230930 62 178 2.0 6.0 0.00 0.24 0.24 1 1004.8
20260505230733 62 225 3.0 6.0 0.00 0.24 0.24 1 1004.7
20260505230634 62 213 3.0 6.0 0.00 0.24 0.24 1 1004.7
20260505230537 62 232 3.0 6.0 0.00 0.24 0.24 1 1004.7
20260505230459 62 215 3.0 6.0 0.00 0.24 0.24 1 1004.7
20260505230422 62 215 3.0 8.0 0.00 0.24 0.24 1 1004.7
20260505230223 62 212 2.0 8.0 0.00 0.24 0.24 1 1004.7
20260505230146 62 229 2.0 8.0 0.00 0.24 0.24 1 1004.7
20260505230034 62 182 3.0 8.0 0.00 0.24 0.24 1 1004.6
20260505225957 62 194 3.0 8.0 0.00 0.24 0.24 1 1004.6
20260505225913 62 211 3.0 8.0 0.00 0.24 0.24 1 1004.6
20260505225732 62 221 4.0 8.0 0.00 0.24 0.24 1 1004.6
20260505225633 62 225 4.0 8.0 0.00 0.24 0.24 1 1004.6
20260505225435 62 125 3.0 5.0 0.00 0.24 0.24 1 1004.7
20260505225359 62 168 2.0 5.0 0.00 0.24 0.24 1 1004.7
20260505225222 62 178 2.0 5.0 0.00 0.24 0.24 1 1004.7
20260505225138 62 206 3.0 5.0 0.00 0.24 0.24 1 1004.7
20260505224950 62 172 2.0 6.0 0.00 0.24 0.24 1 1004.7
20260505224911 62 180 2.0 7.0 0.00 0.24 0.24 1 1004.7
20260505224742 62 190 3.0 8.0 0.00 0.24 0.24 1 1004.7
20260505224637 62 234 3.0 8.0 0.00 0.24 0.24 1 1004.7
20260505224506 62 218 2.0 8.0 0.00 0.24 0.24 1 1004.7
20260505224429 62 184 2.0 8.0 0.00 0.24 0.24 1 1004.7
20260505224232 62 238 4.0 8.0 0.00 0.24 0.24 1 1004.7
20260505224155 62 209 4.0 8.0 0.00 0.24 0.24 1 1004.7
20260505224100 62 228 4.0 8.0 0.00 0.24 0.24 1 1004.7
20260505224022 62 219 4.0 8.0 0.00 0.24 0.24 1 1004.7
20260505223834 62 217 4.0 7.0 0.00 0.24 0.24 1 1004.6
20260505223730 62 190 4.0 7.0 0.00 0.24 0.24 1 1004.5
20260505223654 62 233 3.0 7.0 0.00 0.24 0.24 1 1004.5
20260505223539 62 246 3.0 7.0 0.00 0.24 0.24 1 1004.5
20260505223459 62 244 2.0 6.0 0.00 0.24 0.24 1 1004.5
20260505223341 62 198 3.0 6.0 0.00 0.24 0.24 1 1004.5
20260505223244 62 248 3.0 6.0 0.00 0.24 0.24 1 1004.5
20260505223120 62 246 2.0 9.0 0.00 0.24 0.24 1 1004.4
20260505223034 62 252 2.0 9.0 0.00 0.24 0.24 1 1004.5
20260505222959 62 229 3.0 9.0 0.00 0.24 0.24 1 1004.4
20260505222807 62 252 3.0 9.0 0.00 0.24 0.24 1 1004.4
20260505222721 62 248 3.0 9.0 0.00 0.24 0.24 1 1004.3
20260505222551 62 188 4.0 9.0 0.00 0.24 0.24 1 1004.4
20260505222453 62 224 5.0 9.0 0.00 0.24 0.24 1 1004.5
20260505222236 62 238 4.0 9.0 0.00 0.24 0.24 1 1004.6
20260505222138 62 165 3.0 7.0 0.00 0.24 0.24 1 1004.6
20260505222041 62 225 4.0 7.0 0.00 0.24 0.24 1 1004.6
20260505222002 61 207 4.0 7.0 0.00 0.24 0.24 1 1004.6
20260505221833 61 219 4.0 7.0 0.00 0.24 0.24 1 1004.8
20260505221727 62 204 4.0 7.0 0.00 0.24 0.24 1 1004.9
20260505221542 62 229 4.0 7.0 0.00 0.24 0.24 1 1005.1
20260505221457 62 210 4.0 7.0 0.00 0.24 0.24 1 1005.1
20260505221327 62 202 3.0 7.0 0.00 0.24 0.24 1 1005.1
20260505221227 62 196 3.0 7.0 0.00 0.24 0.24 1 1005.1
20260505221029 62 175 3.0 7.0 0.00 0.24 0.24 1 1005.0
20260505220952 62 197 4.0 7.0 0.00 0.24 0.24 1 1005.0
20260505220834 62 201 4.0 7.0 0.00 0.24 0.24 1 1004.9
20260505220757 62 232 3.0 9.0 0.00 0.24 0.24 1 1004.9
20260505220606 62 207 4.0 11.0 0.00 0.24 0.24 1 1004.9
20260505220442 62 189 3.0 11.0 0.00 0.24 0.24 1 1004.9
20260505220325 62 223 3.0 11.0 0.00 0.24 0.24 1 1004.9
20260505220247 62 211 3.0 11.0 0.00 0.24 0.24 1 1004.9
20260505220117 62 227 4.0 11.0 0.00 0.24 0.24 1 1004.7
20260505220033 62 223 4.0 11.0 0.00 0.24 0.24 1 1004.7
20260505215842 62 144 6.0 11.0 0.00 0.24 0.24 1 1004.6
20260505215757 62 181 5.0 11.0 0.00 0.24 0.24 1 1004.6
20260505215626 62 213 3.0 7.0 0.00 0.24 0.24 1 1004.5
20260505215527 62 155 3.0 7.0 0.00 0.24 0.24 1 1004.4
20260505215330 62 231 3.0 6.0 0.00 0.24 0.24 1 1004.4
20260505215255 62 201 2.0 6.0 0.00 0.24 0.24 1 1004.4
20260505215158 62 208 3.0 6.0 0.01 0.24 0.24 1 1004.4
20260505215100 62 207 3.0 7.0 0.01 0.24 0.24 1 1004.4
20260505215022 62 188 3.0 6.0 0.01 0.24 0.24 1 1004.3
20260505214826 62 207 2.0 6.0 0.04 0.24 0.24 1 1004.3
20260505214727 62 217 3.0 6.0 0.05 0.24 0.24 1 1004.4
20260505214630 62 203 3.0 6.0 0.07 0.24 0.24 1 1004.4
20260505214550 62 199 3.0 10.0 0.10 0.24 0.24 1 1004.3
20260505214451 62 236 4.0 10.0 0.10 0.24 0.24 1 1004.3
20260505214336 62 181 4.0 10.0 0.10 0.24 0.24 1 1004.4
20260505214302 62 207 4.0 10.0 0.10 0.24 0.24 1 1004.4
20260505214216 62 182 4.0 10.0 0.10 0.24 0.24 1 1004.4
20260505214026 62 229 4.0 11.0 0.10 0.24 0.24 1 1004.4
20260505213941 62 214 4.0 11.0 0.10 0.24 0.24 1 1004.3
20260505213810 62 218 5.0 11.0 0.11 0.24 0.24 1 1004.3
20260505213731 62 218 4.0 11.0 0.12 0.24 0.24 1 1004.3
20260505213535 62 221 4.0 11.0 0.17 0.24 0.24 1 1004.1
20260505213459 62 211 4.0 11.0 0.17 0.24 0.24 1 1004.1
20260505213404 62 94 4.0 11.0 0.17 0.24 0.24 1 1004.2
20260505213324 62 171 3.0 11.0 0.17 0.24 0.24 1 1004.2
20260505213139 62 240 2.0 5.0 0.17 0.24 0.24 1 1004.2
20260505213032 62 260 3.0 4.0 0.17 0.24 0.24 1 1004.3
20260505212956 62 233 2.0 4.0 0.17 0.24 0.24 1 1004.3
20260505212900 62 242 2.0 5.0 0.17 0.24 0.24 1 1004.3
20260505212822 62 199 2.0 5.0 0.17 0.24 0.24 1 1004.3
20260505212626 62 171 1.0 4.0 0.17 0.24 0.24 1 1004.3
20260505212528 62 171 1.0 4.0 0.17 0.24 0.24 1 1004.4
20260505212431 62 170 2.0 6.0 0.17 0.24 0.24 1 1004.4
20260505212354 62 201 2.0 6.0 0.17 0.24 0.24 1 1004.4
20260505212316 62 201 2.0 6.0 0.17 0.24 0.24 1 1004.4
20260505212151 62 223 2.0 6.0 0.17 0.24 0.24 1 1004.4
20260505212024 62 210 2.0 6.0 0.17 0.24 0.24 1 1004.4
20260505211946 62 183 2.0 6.0 0.17 0.24 0.24 1 1004.4
20260505211850 62 150 2.0 6.0 0.17 0.24 0.24 1 1004.3
20260505211751 62 138 2.0 6.0 0.17 0.24 0.24 1 1004.3
20260505211622 62 164 2.0 5.0 0.17 0.24 0.24 1 1004.4
20260505211537 62 152 1.0 5.0 0.17 0.24 0.24 1 1004.4
20260505211407 62 175 2.0 5.0 0.17 0.24 0.24 1 1004.4
20260505211330 62 175 2.0 5.0 0.17 0.24 0.24 1 1004.4
20260505211132 62 154 2.0 5.0 0.17 0.24 0.24 1 1004.4
20260505211056 62 167 2.0 5.0 0.17 0.24 0.24 1 1004.4
20260505210943 62 192 3.0 5.0 0.17 0.24 0.24 1 1004.4
20260505210846 62 197 3.0 5.0 0.17 0.24 0.24 1 1004.4
20260505210729 62 207 3.0 5.0 0.17 0.24 0.24 1 1004.4
20260505210649 62 159 3.0 6.0 0.17 0.24 0.24 1 1004.4
20260505210459 62 165 1.0 5.0 0.17 0.24 0.24 1 1004.3
20260505210414 62 167 1.0 5.0 0.17 0.24 0.24 1 1004.3
20260505210224 62 121 2.0 5.0 0.17 0.24 0.24 1 1004.2
20260505210138 62 152 2.0 4.0 0.17 0.24 0.24 1 1004.3
20260505210008 63 175 1.0 9.0 0.17 0.24 0.24 1 1004.2
20260505205930 63 175 1.0 9.0 0.17 0.24 0.24 1 1004.1
20260505205735 63 192 1.0 9.0 0.17 0.24 0.24 1 1004.2
20260505205659 63 153 2.0 9.0 0.17 0.24 0.24 1 1004.2
20260505205603 63 175 2.0 9.0 0.17 0.24 0.24 1 1004.3
20260505205442 63 129 3.0 9.0 0.17 0.24 0.24 1 1004.3
20260505205346 63 151 5.0 9.0 0.17 0.24 0.24 1 1004.4
20260505205227 63 144 5.0 9.0 0.17 0.24 0.24 1 1004.4
20260505205141 63 163 4.0 9.0 0.16 0.23 0.23 1 1004.4
20260505205044 63 198 2.0 6.0 0.16 0.23 0.23 1 1004.4
20260505204926 63 132 2.0 6.0 0.14 0.21 0.21 1 1004.0
20260505204828 63 209 1.0 10.0 0.12 0.19 0.19 1 1004.1
20260505204750 63 126 2.0 10.0 0.12 0.19 0.19 1 1004.1
20260505204709 63 125 3.0 10.0 0.11 0.18 0.18 1 1004.2
20260505204632 63 196 4.0 10.0 0.08 0.15 0.15 1 1004.4
20260505204515 63 206 4.0 10.0 0.07 0.14 0.14 1 1004.3
20260505204437 64 169 3.0 10.0 0.07 0.14 0.14 1 1004.2
20260505204307 64 184 3.0 10.0 0.07 0.14 0.14 1 1004.2
20260505204223 64 243 3.0 10.0 0.07 0.14 0.14 1 1004.1
20260505204033 64 140 7.0 11.0 0.07 0.14 0.14 1 1004.2
20260505203947 64 171 6.0 10.0 0.06 0.13 0.13 1 1004.2
20260505203822 65 175 6.0 14.0 0.06 0.13 0.13 1 1004.0
20260505203723 65 130 6.0 14.0 0.05 0.12 0.12 1 1004.0
20260505203529 65 175 5.0 14.0 0.00 0.07 0.07 1 1004.1
20260505203431 66 140 6.0 14.0 0.00 0.07 0.07 2 1004.1
20260505203333 66 190 7.0 14.0 0.01 0.07 0.07 4 1004.0
20260505203256 66 136 7.0 14.0 0.01 0.07 0.07 7 1004.0
20260505203125 66 192 7.0 14.0 0.01 0.07 0.07 9 1003.8
20260505203037 66 165 5.0 13.0 0.01 0.07 0.07 11 1003.7
20260505202906 66 150 4.0 12.0 0.01 0.07 0.07 10 1003.7
20260505202803 66 159 5.0 12.0 0.01 0.07 0.07 10 1003.7
20260505202627 67 115 5.0 12.0 0.01 0.07 0.07 13 1003.9
20260505202542 67 169 6.0 12.0 0.01 0.07 0.07 16 1003.9
20260505202411 67 158 8.0 12.0 0.01 0.07 0.07 11 1004.0
20260505202335 67 181 6.0 12.0 0.01 0.07 0.07 4 1004.1
20260505202136 67 233 2.0 10.0 0.01 0.07 0.07 3 1003.9
20260505202100 67 259 3.0 10.0 0.01 0.07 0.07 4 1003.9
20260505202003 67 239 4.0 10.0 0.01 0.07 0.07 4 1003.9
20260505201904 67 270 5.0 10.0 0.01 0.07 0.07 7 1003.9
20260505201838 67 272 4.0 9.0 0.01 0.07 0.07 7 1003.7
20260505201637 67 256 5.0 9.0 0.01 0.07 0.07 16 1003.1
20260505201542 67 242 5.0 10.0 0.01 0.07 0.07 14 1003.0
20260505201446 67 242 5.0 10.0 0.02 0.07 0.07 14 1002.9
20260505201328 67 163 5.0 10.0 0.05 0.07 0.07 13 1002.8
20260505201241 67 155 5.0 10.0 0.05 0.07 0.07 11 1002.8
20260505201144 67 186 5.0 11.0 0.06 0.07 0.07 6 1002.8
20260505201037 67 196 4.0 10.0 0.06 0.07 0.07 3 1003.0
20260505200924 67 218 3.0 10.0 0.06 0.07 0.07 4 1003.0
20260505200844 67 142 5.0 10.0 0.06 0.07 0.07 9 1003.0
20260505200714 67 188 5.0 10.0 0.06 0.07 0.07 7 1002.9
20260505200605 66 183 5.0 10.0 0.06 0.07 0.07 4 1002.9
20260505200414 66 161 4.0 9.0 0.06 0.07 0.07 1 1003.0
20260505200336 66 155 3.0 9.0 0.06 0.07 0.07 1 1003.0
20260505200138 66 200 3.0 10.0 0.06 0.07 0.07 1 1002.8
20260505200005 66 167 3.0 10.0 0.06 0.07 0.07 1 1002.8
20260505195926 66 132 3.0 10.0 0.06 0.07 0.07 1 1002.8
20260505195738 66 165 4.0 10.0 0.06 0.07 0.07 1 1003.0
20260505195622 66 182 3.0 11.0 0.06 0.07 0.07 1 1003.0
20260505195547 66 232 3.0 11.0 0.06 0.07 0.07 1 1003.0
20260505195501 66 201 5.0 11.0 0.06 0.07 0.07 1 1003.0
20260505195331 66 143 5.0 11.0 0.06 0.07 0.07 1 1003.0
20260505195231 66 141 6.0 11.0 0.06 0.07 0.07 1 1002.9
20260505195034 66 181 4.0 11.0 0.06 0.07 0.07 1 1003.0
20260505194958 66 179 5.0 11.0 0.06 0.07 0.07 1 1003.0
20260505194904 66 171 3.0 11.0 0.06 0.07 0.07 1 1003.0
20260505194825 66 186 2.0 10.0 0.06 0.07 0.07 1 1003.0
20260505194630 66 118 3.0 10.0 0.06 0.07 0.07 1 1003.1
20260505194531 66 120 3.0 10.0 0.06 0.07 0.07 1 1003.0
20260505194438 66 140 3.0 10.0 0.06 0.07 0.07 1 1003.0
20260505194329 66 164 3.0 10.0 0.06 0.07 0.07 1 1003.0
20260505194233 66 162 3.0 10.0 0.06 0.07 0.07 1 1003.0
20260505194155 66 194 3.0 10.0 0.06 0.07 0.07 1 1003.0
20260505194116 66 186 5.0 10.0 0.06 0.07 0.07 1 1003.0
20260505193939 66 205 6.0 10.0 0.06 0.07 0.07 1 1003.0
20260505193902 66 159 5.0 9.0 0.06 0.07 0.07 1 1003.0
20260505193816 66 155 6.0 9.0 0.06 0.07 0.07 1 1003.0
20260505193647 66 116 5.0 9.0 0.07 0.07 0.07 1 1002.9
20260505193530 66 144 5.0 9.0 0.07 0.07 0.07 1 1002.8
20260505193437 66 138 5.0 9.0 0.07 0.07 0.07 1 1002.8
20260505193359 66 122 5.0 9.0 0.06 0.06 0.06 1 1002.7
20260505193222 66 119 6.0 9.0 0.06 0.06 0.06 1 1002.7
20260505193143 66 139 5.0 8.0 0.06 0.06 0.06 1 1002.7
20260505193045 66 144 5.0 8.0 0.06 0.06 0.06 1 1002.7
20260505192949 66 177 4.0 9.0 0.06 0.06 0.06 7 1002.7
20260505192908 66 158 4.0 9.0 0.06 0.06 0.06 2 1002.6
20260505192736 67 161 3.0 9.0 0.06 0.06 0.06 10 1002.7
20260505192627 67 158 1.0 10.0 0.06 0.06 0.06 10 1002.6
20260505192433 67 219 4.0 17.0 0.06 0.06 0.06 17 1002.6
20260505192350 67 250 5.0 17.0 0.06 0.06 0.06 19 1002.6
20260505192315 67 215 6.0 17.0 0.06 0.06 0.06 19 1002.5
20260505192126 67 219 5.0 17.0 0.06 0.06 0.06 25 1002.5
20260505192040 67 194 6.0 17.0 0.06 0.06 0.06 25 1002.3
20260505191944 67 169 7.0 17.0 0.06 0.06 0.06 27 1002.3
20260505191859 68 204 8.0 17.0 0.06 0.06 0.06 26 1002.2
20260505191822 68 188 8.0 17.0 0.06 0.06 0.06 28 1002.2
20260505191624 69 243 7.0 14.0 0.06 0.06 0.06 34 1002.3
20260505191525 69 172 8.0 14.0 0.05 0.05 0.05 34 1002.2
20260505191427 70 197 7.0 14.0 0.04 0.04 0.04 36 1002.3
20260505191335 70 259 7.0 14.0 0.03 0.03 0.03 36 1002.3
20260505191219 70 270 6.0 13.0 0.01 0.01 0.01 41 1002.6
20260505191132 70 319 5.0 11.0 0.01 0.01 0.01 41 1002.2
20260505191054 70 269 5.0 11.0 0.01 0.01 0.01 41 1002.2
20260505190925 70 317 4.0 10.0 0.01 0.01 0.01 39 1002.1
20260505190818 69 318 5.0 9.0 0.01 0.01 0.01 39 1002.1
20260505190626 69 250 4.0 9.0 0.01 0.01 0.01 34 1001.9
20260505190551 69 291 3.0 6.0 0.01 0.01 0.01 34 1001.9
20260505190504 69 301 2.0 7.0 0.01 0.01 0.01 28 1001.6
20260505190316 69 138 1.0 4.0 0.01 0.01 0.01 24 1001.4
20260505190227 69 147 2.0 4.0 0.01 0.01 0.01 24 1001.3
20260505190120 69 355 2.0 4.0 0.01 0.01 0.01 22 1001.1
20260505190021 69 34 2.0 4.0 0.01 0.01 0.01 19 1001.1
20260505185823 70 105 1.0 2.0 0.01 0.01 0.01 5 1001.0
20260505185734 70 105 1.0 4.0 0.01 0.01 0.01 2 1000.9
20260505185638 70 105 0.0 6.0 0.01 0.01 0.01 8 1000.9
20260505185600 70 105 0.0 6.0 0.01 0.01 0.01 8 1000.9
20260505185518 70 105 1.0 6.0 0.01 0.01 0.01 13 1000.8
20260505185324 70 105 0.0 6.0 0.01 0.01 0.01 20 1000.8
20260505185239 70 105 0.0 6.0 0.01 0.01 0.01 23 1000.7
20260505185108 70 105 1.0 6.0 0.01 0.01 0.01 26 1000.8
20260505185031 70 105 2.0 6.0 0.01 0.01 0.01 28 1000.8
20260505184833 71 98 2.0 9.0 0.01 0.01 0.01 28 1000.9
20260505184756 71 111 2.0 9.0 0.01 0.01 0.01 34 1000.9
20260505184639 71 77 3.0 9.0 0.01 0.01 0.01 42 1000.8
20260505184559 71 113 3.0 9.0 0.01 0.01 0.01 47 1000.9
20260505184422 71 231 3.0 17.0 0.01 0.01 0.01 47 1000.9
20260505184346 71 189 3.0 17.0 0.01 0.01 0.01 47 1000.9
20260505184312 71 212 2.0 17.0 0.01 0.01 0.01 47 1001.0
20260505184216 71 202 3.0 17.0 0.01 0.01 0.01 48 1001.0
20260505184139 71 203 4.0 17.0 0.01 0.01 0.01 49 1001.0
20260505184008 72 187 5.0 17.0 0.01 0.01 0.01 50 1001.1
20260505183924 72 213 6.0 17.0 0.01 0.01 0.01 50 1001.1
20260505183734 72 226 11.0 17.0 0.00 0.00 0.00 51 1001.3
20260505183629 73 196 13.0 18.0 0.00 0.00 0.00 50 1001.4
20260505183551 73 223 13.0 18.0 0.00 0.00 0.00 50 1001.4
20260505183506 74 181 11.0 18.0 0.00 0.00 0.00 50 1001.6
20260505183427 74 188 10.0 17.0 0.00 0.00 0.00 49 1001.5
20260505183226 75 191 11.0 16.0 0.00 0.00 0.00 47 1001.3
20260505183148 75 196 10.0 16.0 0.00 0.00 0.00 47 1001.3
20260505183017 75 174 9.0 16.0 0.00 0.00 0.00 47 1001.1
20260505182931 76 162 8.0 16.0 0.00 0.00 0.00 48 1001.4
20260505182740 76 176 10.0 16.0 0.00 0.00 0.00 45 1001.0
20260505182654 76 148 9.0 16.0 0.00 0.00 0.00 45 1000.7
20260505182441 76 158 10.0 16.0 0.00 0.00 0.00 45 1000.7
20260505182406 76 211 11.0 16.0 0.00 0.00 0.00 45 1000.7
20260505182320 76 195 10.0 16.0 0.00 0.00 0.00 45 1000.6
20260505182131 76 194 7.0 15.0 0.00 0.00 0.00 45 1000.5
20260505182029 76 302 6.0 19.0 0.00 0.00 0.00 46 1000.5
20260505181953 76 207 7.0 19.0 0.00 0.00 0.00 46 1000.5
20260505181835 76 200 9.0 26.0 0.00 0.00 0.00 46 1000.6
20260505181759 76 163 10.0 26.0 0.00 0.00 0.00 45 1000.6
20260505181704 76 232 10.0 26.0 0.00 0.00 0.00 45 1000.6
20260505181627 76 178 9.0 26.0 0.00 0.00 0.00 45 1000.7
20260505181431 76 180 11.0 26.0 0.00 0.00 0.00 45 1000.8
20260505181334 76 186 14.0 26.0 0.00 0.00 0.00 45 1000.8
20260505181237 76 164 18.0 26.0 0.00 0.00 0.00 44 1000.8
20260505181203 76 171 17.0 26.0 0.00 0.00 0.00 44 1000.8
20260505181102 76 178 13.0 28.0 0.00 0.00 0.00 45 1000.7
20260505180934 76 219 9.0 20.0 0.00 0.00 0.00 45 1000.8
20260505180829 76 196 11.0 20.0 0.00 0.00 0.00 45 1000.7
20260505180614 76 226 11.0 24.0 0.00 0.00 0.00 44 1000.7
20260505180525 76 153 9.0 21.0 0.00 0.00 0.00 45 1000.7
20260505180428 76 175 10.0 24.0 0.00 0.00 0.00 45 1000.7
20260505180350 76 149 11.0 24.0 0.00 0.00 0.00 45 1000.7
20260505180310 76 203 12.0 24.0 0.00 0.00 0.00 44 1000.6
20260505180153 76 221 12.0 24.0 0.00 0.00 0.00 44 1000.6
20260505180119 76 224 13.0 24.0 0.00 0.00 0.00 45 1000.7
20260505175923 76 146 11.0 24.0 0.00 0.00 0.00 45 1000.8
20260505175824 76 132 14.0 24.0 0.00 0.00 0.00 44 1000.8
20260505175726 76 159 14.0 24.0 0.00 0.00 0.00 44 1000.7
20260505175648 76 177 14.0 24.0 0.00 0.00 0.00 44 1000.7
20260505175517 76 182 12.0 22.0 0.00 0.00 0.00 44 1000.7
20260505175431 76 128 11.0 25.0 0.00 0.00 0.00 44 1000.9
20260505175240 76 115 13.0 25.0 0.00 0.00 0.00 44 1001.0
20260505175134 76 178 14.0 25.0 0.00 0.00 0.00 44 1000.9
20260505175021 76 220 12.0 25.0 0.00 0.00 0.00 44 1000.9
20260505174945 76 160 12.0 25.0 0.00 0.00 0.00 44 1000.9
20260505174906 76 169 10.0 25.0 0.00 0.00 0.00 45 1000.8
20260505174716 76 161 11.0 25.0 0.00 0.00 0.00 44 1001.0
20260505174630 76 130 13.0 25.0 0.00 0.00 0.00 44 1001.1
20260505174440 76 192 15.0 29.0 0.00 0.00 0.00 43 1001.1
20260505174335 76 173 14.0 31.0 0.00 0.00 0.00 44 1001.2
20260505174258 76 170 12.0 31.0 0.00 0.00 0.00 44 1001.2
20260505174143 76 194 14.0 31.0 0.00 0.00 0.00 43 1001.0
20260505174110 76 164 14.0 31.0 0.00 0.00 0.00 43 1000.9
20260505174036 76 192 14.0 31.0 0.00 0.00 0.00 43 1000.9
20260505173918 76 155 14.0 31.0 0.00 0.00 0.00 44 1001.0
20260505173819 76 155 16.0 31.0 0.00 0.00 0.00 44 1001.1
20260505173621 76 188 17.0 31.0 0.00 0.00 0.00 43 1001.2
20260505173545 76 184 15.0 33.0 0.00 0.00 0.00 44 1001.2
20260505173429 76 155 13.0 24.0 0.00 0.00 0.00 44 1001.2
20260505173352 77 221 13.0 27.0 0.00 0.00 0.00 44 1001.2
20260505173133 77 171 14.0 27.0 0.00 0.00 0.00 43 1001.2
20260505173038 77 189 14.0 27.0 0.00 0.00 0.00 43 1001.2
20260505172940 77 169 15.0 27.0 0.00 0.00 0.00 44 1001.1
20260505172904 77 136 16.0 27.0 0.00 0.00 0.00 45 1001.1
20260505172824 77 139 16.0 27.0 0.00 0.00 0.00 44 1001.1
20260505172627 77 144 15.0 27.0 0.00 0.00 0.00 44 1001.1
20260505172549 77 237 14.0 28.0 0.00 0.00 0.00 44 1001.1
20260505172432 77 119 15.0 24.0 0.00 0.00 0.00 44 1001.3
20260505172356 77 189 15.0 27.0 0.00 0.00 0.00 43 1001.3
20260505172310 77 180 13.0 27.0 0.00 0.00 0.00 44 1001.2
20260505172131 77 199 13.0 27.0 0.00 0.00 0.00 44 1001.1
20260505172049 76 163 14.0 27.0 0.00 0.00 0.00 44 1001.1
20260505171857 76 168 13.0 30.0 0.00 0.00 0.00 44 1001.2
20260505171759 76 165 15.0 32.0 0.00 0.00 0.00 44 1001.2
20260505171625 76 138 17.0 32.0 0.00 0.00 0.00 43 1001.3
20260505171528 76 163 15.0 32.0 0.00 0.00 0.00 44 1001.3
20260505171429 76 191 14.0 32.0 0.00 0.00 0.00 44 1001.4
20260505171353 76 157 11.0 32.0 0.00 0.00 0.00 44 1001.4
20260505171237 76 218 12.0 32.0 0.00 0.00 0.00 46 1001.3
20260505171159 76 196 16.0 32.0 0.00 0.00 0.00 45 1001.2
20260505171026 76 150 17.0 32.0 0.00 0.00 0.00 45 1001.3
20260505170950 76 160 14.0 32.0 0.00 0.00 0.00 45 1001.3
20260505170904 76 177 9.0 21.0 0.00 0.00 0.00 45 1001.2
20260505170711 76 115 10.0 21.0 0.00 0.00 0.00 45 1001.2
20260505170634 76 186 11.0 21.0 0.00 0.00 0.00 45 1001.2
20260505170436 76 153 11.0 25.0 0.00 0.00 0.00 45 1001.4
20260505170400 76 174 11.0 25.0 0.00 0.00 0.00 45 1001.4
20260505170224 76 148 11.0 25.0 0.00 0.00 0.00 45 1001.3
20260505170122 76 151 13.0 25.0 0.00 0.00 0.00 45 1001.4
20260505170054 76 188 12.0 25.0 0.00 0.00 0.00 45 1001.4
20260505165956 76 199 10.0 25.0 0.00 0.00 0.00 45 1001.5
20260505165859 76 181 12.0 25.0 0.00 0.00 0.00 45 1001.5
20260505165820 76 194 13.0 25.0 0.00 0.00 0.00 45 1001.6
20260505165624 76 189 14.0 24.0 0.00 0.00 0.00 45 1001.8
20260505165525 75 136 13.0 23.0 0.00 0.00 0.00 45 1001.8
20260505165427 75 152 9.0 21.0 0.00 0.00 0.00 47 1001.7
20260505165351 75 151 8.0 20.0 0.00 0.00 0.00 47 1001.7
20260505165314 75 174 7.0 19.0 0.00 0.00 0.00 47 1001.7
20260505165220 75 122 7.0 24.0 0.00 0.00 0.00 48 1001.7
20260505165144 75 158 8.0 24.0 0.00 0.00 0.00 47 1001.7
20260505165016 74 131 11.0 22.0 0.00 0.00 0.00 47 1001.9
20260505164930 74 190 11.0 22.0 0.00 0.00 0.00 47 1001.8
20260505164740 74 146 11.0 22.0 0.00 0.00 0.00 47 1002.0
20260505164704 74 194 11.0 22.0 0.00 0.00 0.00 47 1002.0
20260505164618 74 146 12.0 22.0 0.00 0.00 0.00 47 1001.9
20260505164428 74 140 15.0 22.0 0.00 0.00 0.00 47 1001.9
20260505164343 74 161 17.0 27.0 0.00 0.00 0.00 46 1001.9
20260505164307 74 175 12.0 23.0 0.00 0.00 0.00 47 1002.0
20260505164207 74 178 9.0 21.0 0.00 0.00 0.00 47 1002.3
20260505164121 74 148 9.0 18.0 0.00 0.00 0.00 46 1002.0
20260505163934 74 177 12.0 18.0 0.00 0.00 0.00 47 1002.2
20260505163850 74 192 12.0 18.0 0.00 0.00 0.00 47 1002.2
20260505163813 74 196 12.0 18.0 0.00 0.00 0.00 47 1002.3
20260505163733 74 128 12.0 19.0 0.00 0.00 0.00 47 1002.1
20260505163626 74 138 11.0 19.0 0.00 0.00 0.00 48 1002.2
20260505163456 74 160 11.0 20.0 0.00 0.00 0.00 47 1002.3
20260505163338 73 148 11.0 23.0 0.00 0.00 0.00 48 1002.5
20260505163241 73 139 11.0 23.0 0.00 0.00 0.00 48 1002.5
20260505163144 73 234 10.0 23.0 0.00 0.00 0.00 48 1002.5
20260505163041 73 174 10.0 23.0 0.00 0.00 0.00 48 1002.4
20260505162923 73 133 10.0 23.0 0.00 0.00 0.00 48 1002.4
20260505162845 73 166 12.0 23.0 0.00 0.00 0.00 47 1002.4
20260505162654 73 125 15.0 22.0 0.00 0.00 0.00 47 1002.5
20260505162609 73 179 15.0 22.0 0.00 0.00 0.00 48 1002.6
20260505162419 73 138 12.0 22.0 0.00 0.00 0.00 48 1002.6
20260505162319 73 170 12.0 22.0 0.00 0.00 0.00 48 1002.5
20260505162124 73 187 12.0 28.0 0.00 0.00 0.00 48 1002.6
20260505162038 73 148 13.0 28.0 0.00 0.00 0.00 47 1002.6
20260505161908 73 140 12.0 28.0 0.00 0.00 0.00 48 1002.6
20260505161834 73 186 13.0 28.0 0.00 0.00 0.00 48 1002.5
20260505161704 73 175 13.0 28.0 0.00 0.00 0.00 48 1002.6
20260505161618 73 144 10.0 28.0 0.00 0.00 0.00 48 1002.6
20260505161447 72 172 13.0 28.0 0.00 0.00 0.00 48 1002.7
20260505161350 72 146 13.0 28.0 0.00 0.00 0.00 48 1002.7
20260505161306 72 188 13.0 29.0 0.00 0.00 0.00 49 1002.8
20260505161024 72 169 14.0 25.0 0.00 0.00 0.00 48 1003.1
20260505160939 72 146 14.0 25.0 0.00 0.00 0.00 48 1002.8
20260505160757 72 169 14.0 25.0 0.00 0.00 0.00 48 1003.0
20260505160608 72 159 14.0 25.0 0.00 0.00 0.00 48 1003.0
20260505160426 72 185 14.0 26.0 0.00 0.00 0.00 48 1003.0
20260505160341 72 141 12.0 23.0 0.00 0.00 0.00 48 1003.0
20260505160241 72 145 11.0 23.0 0.00 0.00 0.00 48 1003.0
20260505160125 72 144 13.0 23.0 0.00 0.00 0.00 48 1003.0
20260505153344 71 174 9.0 22.0 0.00 0.00 0.00 49 1003.6
20260505153304 71 207 9.0 22.0 0.00 0.00 0.00 49 1003.7
20260505153206 71 186 11.0 22.0 0.00 0.00 0.00 49 1003.6
20260505153128 71 126 12.0 22.0 0.00 0.00 0.00 48 1003.6
20260505152931 71 170 16.0 21.0 0.00 0.00 0.00 48 1003.6
20260505152833 71 167 14.0 21.0 0.00 0.00 0.00 48 1003.5
20260505152737 71 175 13.0 21.0 0.00 0.00 0.00 48 1003.6
20260505152701 71 136 14.0 21.0 0.00 0.00 0.00 48 1003.6
20260505152624 71 164 13.0 21.0 0.00 0.00 0.00 49 1003.8
20260505152426 71 175 11.0 22.0 0.00 0.00 0.00 49 1003.6
20260505152350 71 190 13.0 22.0 0.00 0.00 0.00 48 1003.6
20260505152235 71 169 14.0 23.0 0.00 0.00 0.00 48 1003.5
20260505152157 71 144 14.0 22.0 0.00 0.00 0.00 48 1003.4
20260505152041 71 180 13.0 22.0 0.00 0.00 0.00 48 1003.6
20260505151919 71 178 13.0 22.0 0.00 0.00 0.00 48 1003.7
20260505151730 71 198 11.0 28.0 0.00 0.00 0.00 49 1003.6
20260505151627 70 236 11.0 28.0 0.00 0.00 0.00 49 1003.6
20260505151548 70 126 11.0 28.0 0.00 0.00 0.00 49 1003.6
20260505151443 70 123 11.0 28.0 0.00 0.00 0.00 49 1003.6
20260505151415 70 173 11.0 28.0 0.00 0.00 0.00 49 1003.6
20260505151238 70 190 14.0 28.0 0.00 0.00 0.00 49 1003.7
20260505151200 70 192 15.0 28.0 0.00 0.00 0.00 49 1003.7
20260505150951 70 160 10.0 26.0 0.00 0.00 0.00 49 1003.6
20260505150846 70 180 12.0 26.0 0.00 0.00 0.00 49 1003.6
20260505150716 70 202 12.0 26.0 0.00 0.00 0.00 49 1003.7
20260505150638 70 183 12.0 26.0 0.00 0.00 0.00 49 1003.7
20260505150516 69 155 13.0 26.0 0.00 0.00 0.00 48 1003.9
20260505150430 69 159 14.0 26.0 0.00 0.00 0.00 49 1003.9
20260505150314 69 166 15.0 26.0 0.00 0.00 0.00 49 1003.9
20260505150237 69 147 15.0 26.0 0.00 0.00 0.00 49 1003.9
20260505140623 65 139 8.0 21.0 0.00 0.00 0.00 49 1004.7
20260505140504 65 144 6.0 21.0 0.00 0.00 0.00 49 1004.6
20260505140426 65 140 6.0 21.0 0.00 0.00 0.00 49 1004.7
20260505140203 65 185 7.0 21.0 0.00 0.00 0.00 49 1004.7
20260505140116 65 172 7.0 21.0 0.00 0.00 0.00 49 1004.7
20260505130218 64 179 11.0 20.0 0.00 0.00 0.00 50 1004.6
20260505130140 64 159 9.0 18.0 0.00 0.00 0.00 50 1004.6
20260505125021 64 125 8.0 15.0 0.00 0.00 0.00 50 1005.0
20260505124945 63 172 8.0 15.0 0.00 0.00 0.00 50 1005.0
20260505124839 63 142 7.0 15.0 0.00 0.00 0.00 50 1004.9
20260505124724 63 162 8.0 15.0 0.00 0.00 0.00 50 1005.0
20260505124627 63 183 8.0 15.0 0.00 0.00 0.00 50 1004.9
20260505124541 63 192 8.0 15.0 0.00 0.00 0.00 50 1005.0
20260505124427 63 171 8.0 20.0 0.00 0.00 0.00 50 1004.9
20260505124341 63 188 8.0 20.0 0.00 0.00 0.00 50 1005.0
20260505124131 63 214 9.0 20.0 0.00 0.00 0.00 50 1005.0